[Iaude] MPEC X264: 2023 XZ11 [a=2.02,e=0.56,i=17.2,H=25.1]

mpec at marsden.cfa.harvard.edu mpec at marsden.cfa.harvard.edu
Wed Dec 13 09:38:09 EST 2023


M.P.E.C. 2023-X264                            Issued 2023 December 13, 14:34 UT

     The Minor Planet Electronic Circulars contain information on unusual
         minor planets, routine data on comets and natural satellites,
         and occasional editorial announcements.  They are published
    on behalf of Division F of the International Astronomical Union by the
          Minor Planet Center, Smithsonian Astrophysical Observatory,
                          Cambridge, MA 02138, U.S.A.
			  
             Prepared using the Tamkin Foundation Computer Network

                              MPC at CFA.HARVARD.EDU
            URL https://www.minorplanetcenter.net/    ISSN 1523-6714

                                   2023 XZ11                                    


Observations:
     K23X11Z* C2023 12 10.36658104 15 27.255-38 11 35.46         20.40wXEX264F51
     K23X11Z  C2023 12 10.37746104 15 24.106-38 13 20.16         20.53wXEX264F51
     K23X11Z  C2023 12 10.38945504 15 20.598-38 15 14.77         20.53wXEX264F51
     K23X11Z KC2023 12 10.50577704 14 56.143-38 30 45.40         19.7 GVEX264474
     K23X11Z KC2023 12 10.50760504 14 55.618-38 31 03.22         20.1 GVEX264474
     K23X11Z KC2023 12 10.50943304 14 55.037-38 31 21.25         19.7 GVEX264474
     K23X11Z KC2023 12 10.51126204 14 54.607-38 31 39.47         20.1 GVEX264474
     K23X11Z |C2023 12 11.14615004 12 29.450-40 33 49.10         19.9 GVEX264807
     K23X11Z |C2023 12 11.14928004 12 28.190-40 34 30.40         20.7 GVEX264807
     K23X11Z |C2023 12 11.15248004 12 26.940-40 35 12.40         19.9 GVEX264807
     K23X11Z |C2023 12 13.07248003 53 08.060-52 56 10.90         18.7 GVEX264807
     K23X11Z |C2023 12 13.07617903 53 02.150-52 58 41.60         18.9 GVEX264807
     K23X11Z |C2023 12 13.07993003 52 56.070-53 01 15.60         18.9 GVEX264807
     K23X11Z |C2023 12 13.08362003 52 50.070-53 03 47.10         19.3 GVEX264807
     K23X11Z KC2023 12 13.44262603 42 00.977-57 39 46.26         19.0 GVEX264474
     K23X11Z KC2023 12 13.44393303 41 57.571-57 40 55.56         19.0 GVEX264474
     K23X11Z KC2023 12 13.44523803 41 54.110-57 42 05.15         18.9 GVEX264474

Observer details:
474 Mount John Observatory, Lake Tekapo.  Observers A. C. Gilmore, P. M.
    Kilmartin.  Measurer P. M. Kilmartin.  1.0-m f/7.7 Reflector + CCD.
807 Cerro Tololo Observatory, La Serena.  Observers T. Linder, R. Holmes, L.
    Horn.  0.61-m f/11 Ritchey-Chretien + CCD.
F51 Pan-STARRS 1, Haleakala.  Observers J. Herman, T. Lowe, P. Minguez, A.
    Schultz, I. Smith.  Measurers K. Chambers, T. de Boer, J. Fairlamb, H.
    Gao, M. Huber, C.-C. Lin, E. Magnier, Y. Ramanjooloo, R. Wainscoat, R.
    Weryk.  1.8-m Ritchey-Chretien + CCD.

Orbital elements:
2023 XZ11                                                Earth MOID = 0.0100 AU
Epoch 2023 Sept. 13.0 TT = JDT 2460200.5                Veres                   
M 317.45765              (2000.0)            P               Q                  
n   0.34372091     Peri.   41.13919     -0.54086518     -0.78835135             
a   2.0183605      Node    83.60882     +0.67366479     -0.61474341             
e   0.5612465      Incl.   17.15963     +0.50362744     -0.02434499             
P   2.87           H   25.19          G   0.15           U   7                  
Residuals in seconds of arc
231210 F51  0.2-  0.1+    231210 474  0.3+  0.0     231213 807  0.0   0.1-
231210 F51  0.1-  0.1-    231211 807  0.1+  0.1-    231213 807  0.1-  0.2-
231210 F51  0.1-  0.4+    231211 807  0.1-  0.2-    231213 474  0.0   0.1-
231210 474  0.2+  0.2-    231211 807  0.1+  0.1-    231213 474  0.1-  0.1+
231210 474  0.1+  0.1+    231213 807  0.0   0.2-    231213 474  0.5-  0.0
231210 474  0.7-  0.1+    231213 807  0.2+  0.4+

Ephemeris:
2023 XZ11                a,e,i = 2.02, 0.56, 17                  q = 0.8856
Date    TT    R. A. (2000) Decl.     Delta      r    Elong.  Phase     V
2023 11 13    04 25 35.5 -23 34 03   0.2775  1.2015   134.8    35.8    24.3
...
2023 11 28    04 25 24.6 -27 53 51   0.1457  1.0876   130.9    43.3    22.9
...
2023 12 06    04 22 08.2 -31 52 21   0.07790 1.0325   125.4    51.1    21.6
...
2023 12 12    04 07 18.7 -44 24 02   0.02816 0.9951   110.9    67.6    19.8
2023 12 13    03 54 27.3 -52 06 07   0.02037 0.9892   102.6    76.2    19.4
2023 12 14    03 03 05.3 -67 50 18   0.01343 0.9835    85.4    93.8    19.1
...
2023 12 20    16 38 31.2 +12 51 40   0.04238 0.9519    40.2   138.2    24.8
...
2023 12 28    16 33 39.3 +19 59 19   0.1100  0.9183    51.1   123.6    25.3
...
2024 01 12    16 38 39.3 +20 17 31   0.2366  0.8869    59.4   107.3    25.8

M. P. C. Staff               (C) Copyright 2023 MPC           M.P.E.C. 2023-X264





More information about the Iaude mailing list